CZ-3B DEB, 40848

Orbit data source: Space-Track

CZ-3B DEB, 40848 is space debris in HEO originally from a launch on Mon, 19 Dec 2011 UTC launched from the Xichang Space Center, China (XSC). Debris objects in space refer to the collection of defunct objects orbiting the Earth. Examples of debris include non-operational satellites, rocket bodies, and fragments generated from explosions, collisions, or faulty payload assembly.

Loading next visibility...
Identifier
40848, 2011-077AD
Orbit
HEO
Last TLE update
2 weeks ago
Origin
Manufacturer
CALT
Mission
Spacecraft
Bus & Motor
Unknown
Mass
Unknown
Launch date (UTC)
2011-12-19 (14 years ago)
Launch vehicle
Unknown
Launch site
Xichang Space Center, China (XSC)
Object type
Payload
Rocket body
Debris
Shape & HBR
Unknown
Radar Cross Section
Medium (>0.1 m² and <1 m²)

Expand to show TLE details & history

TLE from 2 weeks ago
0 CZ-3B DEB
1 40848U 11077AD  25168.11081671 -.00000285  00000-0 -54469-2 0  9994
2 40848  26.3496  98.5430 7349654 215.7674  59.5407  1.90952051 72118
Epoch: 2025-06-17T02:39Z
TLE epoch observation values (Epoch: 2025-06-17T02:39:34.563Z)
Latitude
0.00015°
Longitude
153.02564°
Altitude
24,937.862 km
Speed
3.306 km/s
True Right ascension
06h 34m 07s
True Declination
0° 00' 01"
Sunlit
Object was in daylight at epoch
Visualization orbit readout
Latitude
15.65089°
Longitude
-176.26766°
Altitude
40,832.26 km
Speed
1.537 km/s
Apparent Right ascension
08h 40m 07s
Apparent Declination
9° 45' 34"
Sunlit
Object is in daylight
Visualization observer readout
Local Sidereal Time
21:09:33
Azimuth
9.468° NNE
Elevation
-39.858°
Doppler factor
1
Orbital elements
Apogee altitude
41,243.109 km
Perigee altitude
896.52 km
Semi-major axis
27,447.951 km
Eccentricity
0.73497
Inclination
26.3496°
RAAN
98.543°
Arg. of periapsis
215.7674°
True anomaly
Unknown
Mean anomaly
59.5407°
Eccentric anomaly
Unknown
Mean motion
0.47729 °/min
Orbital period
754.27 mins
BSTAR
-0.0054469
Loading maneuver chart data...
Loading SW <> Apogee altitude chart data...
Loading historical data...
Loading historical data...
Loading historical data...
Loading historical data...
Loading historical data...
Loading historical data...
Loading historical data...

CZ-3B DEB Visibility forecast

Observer location: undefined°, undefined°

Span
Click to sort rows by Start time (UTC) header in descending order
Start Az.
Max El. time (UTC)
Max El. Az.
Max El.
End time (UTC)
End Az.
699 mins2025-07-01 17:10:15.798Z191.184° SSW2025-07-01 21:28:15.798Z205.194° SW40.322°2025-07-02 04:49:15.798Z159.085° S
|